[[{"header":{"parameterUnit":"m.s-1","parameterCategory":1,"la1":30.2991,"la2":30.254,"lo1":-89.0895,"lo2":-89.0444,"dy":0.0017,"dx":0.0017,"nx":28,"ny":28,"refTime":"2023-08-14T09:00:00:Z","depth":0,"parameterNumber":2,"parameterNumberName":"U-component_of_WINDS"},"data":[0,0,0,0,0,0,0,0,0,0,0,0,0,0,0,0,0,0,0,0,0,0,0,0,0,0,0,0,0,0,0,0,0,0,0,0,0,0,0,0,0,0,0,0,0,0,0,0,0,0,0,0,0,0,0,0,0,0,1.1418,1.142,0,1.154,1.1542,1.1543,1.1576,1.1575,1.1574,1.1574,1.1702,1.1705,1.171,0,0,0,0,0,0,0,0,0,0,0,0,0,1.1216,1.1219,1.1418,1.142,1.1421,1.154,1.1542,1.1543,1.1576,1.1575,1.1574,1.1573,1.17,1.1705,1.171,0,0,0,0,0,0,0,0,0,0,0,0,0,1.1317,1.1221,1.1418,1.1452,1.1456,1.154,1.1542,1.1544,1.1576,1.1575,1.1574,1.1573,1.1699,1.1705,1.1711,1.177,0,0,1.1729,1.1732,0,0,0,0,0,0,0,0,1.1312,1.1325,1.1445,1.145,1.1455,1.1542,1.1517,1.162,1.1576,1.1531,1.1574,1.1572,1.1649,1.1659,1.1685,1.1776,1.1781,1.173,1.1734,1.1736,1.1738,0,0,0,0,0,0,0,1.1305,1.132,1.1467,1.1447,1.1453,1.1462,1.1475,1.1537,1.1595,1.1535,1.1537,1.1551,1.1652,1.1679,1.1688,1.1783,1.173,1.1735,1.1739,1.1741,1.1928,1.1929,0,0,0,0,0,0,1.1291,1.1314,1.1463,1.147,1.1379,1.1466,1.1481,1.1515,1.1594,1.1605,1.1552,1.1552,1.1669,1.1681,1.1693,1.1767,1.1736,1.1742,1.1745,1.1927,1.1929,1.193,0,0,0,0,0,0,1.1287,1.1304,1.1458,1.1393,1.1413,1.1471,1.1509,1.1518,1.1545,1.1607,1.1618,1.1569,1.1669,1.1684,1.175,1.1771,1.1745,1.175,1.1925,1.1927,1.1929,1.1915,0,0,0,0,0,0,1.1281,1.1303,1.1325,1.1393,1.1416,1.1512,1.151,1.1521,1.1555,1.1556,1.1626,1.1636,1.1669,1.1741,1.1756,1.1779,1.1755,1.1924,1.1926,1.1929,1.1914,1.1916,1.1918,0,0,0,0,0,1.1274,1.1317,1.1326,1.1344,1.1446,1.1514,1.1527,1.1563,1.1557,1.158,1.162,1.1634,1.1767,1.1747,1.1765,1.179,1.1923,1.1926,1.1928,1.1913,1.1916,1.1918,0,0,0,0,0,0,1.1252,1.1327,1.1338,1.1405,1.1452,1.1519,1.155,1.1565,1.1616,1.1616,1.1659,1.1674,1.1737,1.177,1.1747,1.1851,1.1845,1.1851,1.1827,1.183,1.1832,1.1823,1.176,0,0,0,0,0,1.1255,1.1303,1.1366,1.1419,1.1442,1.1492,1.1523,1.1546,1.1598,1.1618,1.1663,1.1713,1.1766,1.18,1.1853,1.1919,1.1934,1.1945,1.1947,1.1949,1.1954,1.199,1.1996,1.194,1.1939,1.1939,0,0,1.1262,1.1308,1.1336,1.1416,1.1456,1.1505,1.1509,1.1561,1.1598,1.1627,1.1691,1.1725,1.1785,1.185,1.1882,1.188,1.1973,1.1953,1.1953,1.1958,1.1994,1.1999,1.2004,1.1941,1.1941,1.1941,0,0,1.1299,1.1339,1.1387,1.1426,1.1486,1.1519,1.153,1.1594,1.1618,1.1683,1.1705,1.175,1.1841,1.1881,1.1914,1.1965,1.1979,1.1981,1.1992,1.2027,1.2032,1.2036,1.2053,1.2059,1.1986,1.1986,1.1986,0,1.13,1.1374,1.141,1.1461,1.1495,1.1522,1.1571,1.1607,1.1681,1.1704,1.1701,1.1814,1.1856,1.1931,1.1944,1.1969,1.1984,1.1973,1.2028,1.2033,1.2037,1.2054,1.2061,1.1985,1.1985,1.1985,1.1985,0,1.1372,1.1423,1.1455,1.1524,1.1562,1.1611,1.1655,1.1689,1.1709,1.1741,1.1807,1.1858,1.192,1.194,1.196,1.2018,1.2015,1.2019,1.2014,1.2041,1.2058,1.2065,1.1985,1.1985,1.1985,1.1985,0,0,1.1399,1.1487,1.1498,1.1529,1.1596,1.1637,1.1687,1.1747,1.1775,1.1825,1.1868,1.1944,1.1948,1.1985,1.201,1.2041,1.2076,1.2042,1.2044,1.2045,1.2142,1.2137,1.2144,1.2087,1.2088,1.2089,1.2137,0,1.1444,1.1535,1.1568,1.1643,1.169,1.1716,1.176,1.1806,1.1837,1.1883,1.1918,1.197,1.1972,1.1995,1.2026,1.2065,1.2096,1.2062,1.2127,1.2129,1.2111,1.2153,1.2149,1.2192,1.2144,1.2145,1.2146,0,1.1509,1.1558,1.1637,1.1697,1.1718,1.1757,1.1814,1.1857,1.1909,1.193,1.197,1.1993,1.2047,1.2038,1.2113,1.2089,1.2117,1.2141,1.2143,1.215,1.2139,1.2161,1.2206,1.2212,1.2156,1.2156,1.2155,0,1.152,1.1606,1.1664,1.169,1.1762,1.1788,1.182,1.1871,1.1905,1.1955,1.1976,1.2032,1.2063,1.2106,1.2143,1.2133,1.2214,1.2208,1.2233,1.2232,1.2249,1.2247,1.2299,1.2268,1.2268,1.2268,1.2268,0,1.1566,1.1613,1.1669,1.1705,1.1758,1.1796,1.1848,1.1881,1.1926,1.1969,1.1995,1.2035,1.2082,1.2127,1.2157,1.2214,1.2228,1.2246,1.2253,1.2243,1.2241,1.2262,1.226,1.227,1.2269,1.2269,1.2269,0,1.1587,1.1627,1.1692,1.1754,1.1771,1.1807,1.1861,1.1896,1.1928,1.1982,1.1997,1.2048,1.2103,1.2144,1.2216,1.2235,1.2296,1.2304,1.2277,1.2281,1.2303,1.23,1.2369,1.238,1.2343,1.2343,1.2343,0,1.1614,1.165,1.1716,1.1746,1.1777,1.1825,1.1859,1.1898,1.1932,1.1994,1.2021,1.2078,1.2125,1.2211,1.2255,1.231,1.2319,1.2339,1.2327,1.2316,1.2318,1.2315,1.2319,1.2341,1.2341,1.2341,1.2341,0,1.1657,1.1674,1.1721,1.1775,1.1814,1.1859,1.1904,1.1927,1.1974,1.2011,1.2067,1.2103,1.2175,1.2231,1.2289,1.2322,1.234,1.2345,1.2353,1.2343,1.2326,1.2335,1.2281,1.2343,1.2343,1.2343,1.2343,1.2343,1.1681,1.1714,1.1765,1.1817,1.1855,1.1896,1.1932,1.1968,1.2015,1.2076,1.2096,1.2153,1.2204,1.2285,1.2318,1.2363,1.2364,1.2376,1.2379,1.2381,1.238,1.2319,1.2374,1.2374,1.2374,1.2374,1.2374,0,1.1725,1.1758,1.1805,1.1867,1.1907,1.1919,1.1969,1.2002,1.2052,1.2098,1.2143,1.2206,1.226,1.2307,1.2363,1.239,1.24,1.2404,1.2402,1.2409,1.2377,1.2364,1.2395,1.2395,1.2395,1.2395,1.2395,1.2395,1.1752,1.1808,1.1832,1.1907,1.194,1.1996,1.2023,1.2061,1.2098,1.2167,1.2211,1.2241,1.2288,1.2347,1.2396,1.2409,1.2428,1.243,1.2444,1.2414,1.2411,1.2409,1.2396,1.2434,1.2434,1.2472,1.2473,1.2473]},{"header":{"parameterUnit":"m.s-1","parameterCategory":1,"la1":30.2991,"la2":30.254,"lo1":-89.0895,"lo2":-89.0444,"dy":0.0017,"dx":0.0017,"nx":28,"ny":28,"refTime":"2023-08-14T09:00:00:Z","depth":0,"parameterNumber":3,"parameterNumberName":"V-component_of_WINDS"},"data":[0,0,0,0,0,0,0,0,0,0,0,0,0,0,0,0,0,0,0,0,0,0,0,0,0,0,0,0,0,0,0,0,0,0,0,0,0,0,0,0,0,0,0,0,0,0,0,0,0,0,0,0,0,0,0,0,0,0,4.4194,4.4194,0,4.4177,4.4177,4.4177,4.4173,4.4173,4.4173,4.4173,4.4154,4.4153,4.4153,0,0,0,0,0,0,0,0,0,0,0,0,0,4.422,4.4219,4.4194,4.4194,4.4194,4.4178,4.4177,4.4177,4.4173,4.4173,4.4173,4.4173,4.4154,4.4153,4.4153,0,0,0,0,0,0,0,0,0,0,0,0,0,4.4206,4.4219,4.4194,4.419,4.419,4.4178,4.4177,4.4177,4.4173,4.4173,4.4173,4.4173,4.4154,4.4153,4.4153,4.4143,0,0,4.415,4.4149,0,0,0,0,0,0,0,0,4.4207,4.4206,4.4191,4.419,4.419,4.4178,4.4179,4.4166,4.4173,4.4179,4.4173,4.4174,4.4162,4.416,4.4156,4.4142,4.4141,4.415,4.4149,4.4149,4.4148,0,0,0,0,0,0,0,4.4208,4.4206,4.4188,4.4191,4.419,4.4188,4.4186,4.4177,4.4169,4.4179,4.4178,4.4176,4.4161,4.4157,4.4156,4.4141,4.415,4.4149,4.4148,4.4148,4.4116,4.4115,0,0,0,0,0,0,4.421,4.4207,4.4188,4.4187,4.4199,4.4187,4.4185,4.4181,4.417,4.4168,4.4176,4.4176,4.4159,4.4157,4.4155,4.4142,4.4149,4.4148,4.4147,4.4116,4.4116,4.4115,0,0,0,0,0,0,4.4211,4.4209,4.4189,4.4197,4.4194,4.4187,4.4182,4.4181,4.4177,4.4168,4.4166,4.4174,4.4159,4.4157,4.4146,4.4141,4.4147,4.4146,4.4116,4.4116,4.4115,4.4116,0,0,0,0,0,0,4.4212,4.4209,4.4206,4.4197,4.4194,4.4181,4.4182,4.418,4.4176,4.4175,4.4165,4.4164,4.4159,4.4147,4.4145,4.414,4.4146,4.4117,4.4116,4.4116,4.4117,4.4116,4.4115,0,0,0,0,0,4.4213,4.4207,4.4206,4.4204,4.4191,4.4181,4.4179,4.4174,4.4175,4.4172,4.4166,4.4164,4.4142,4.4146,4.4143,4.4138,4.4117,4.4116,4.4116,4.4117,4.4116,4.4115,0,0,0,0,0,0,4.4216,4.4206,4.4205,4.4196,4.4189,4.418,4.4176,4.4174,4.4166,4.4166,4.416,4.4157,4.4146,4.4141,4.4146,4.4127,4.4129,4.4128,4.4131,4.413,4.413,4.4131,4.4145,0,0,0,0,0,4.4216,4.421,4.4201,4.4194,4.4191,4.4184,4.4179,4.4176,4.4168,4.4165,4.4158,4.415,4.4141,4.4136,4.4127,4.4116,4.4112,4.4111,4.411,4.411,4.4108,4.41,4.4098,4.4113,4.4113,4.4113,0,0,4.4215,4.4209,4.4206,4.4195,4.4189,4.4181,4.4181,4.4174,4.4168,4.4164,4.4153,4.4148,4.4138,4.4126,4.4121,4.4122,4.4103,4.4109,4.4108,4.4108,4.4099,4.4098,4.4096,4.4113,4.4113,4.4113,0,0,4.421,4.4206,4.4199,4.4193,4.4184,4.4179,4.4177,4.4168,4.4164,4.4153,4.415,4.4142,4.4127,4.4119,4.4114,4.4104,4.4101,4.4101,4.4098,4.4089,4.4088,4.4087,4.4082,4.408,4.41,4.41,4.41,0,4.4211,4.42,4.4196,4.4188,4.4182,4.4179,4.4171,4.4165,4.4153,4.4149,4.415,4.413,4.4123,4.4109,4.4106,4.4102,4.4099,4.4102,4.4089,4.4088,4.4087,4.4082,4.408,4.41,4.41,4.41,4.41,0,4.4201,4.4193,4.4188,4.4178,4.4172,4.4164,4.4157,4.4151,4.4147,4.4142,4.4129,4.4121,4.4109,4.4106,4.4103,4.409,4.4091,4.409,4.4092,4.4085,4.408,4.4079,4.41,4.41,4.41,4.41,0,0,4.4199,4.4184,4.4183,4.4177,4.4166,4.4159,4.415,4.414,4.4134,4.4125,4.4117,4.4103,4.4102,4.4096,4.4091,4.4084,4.4074,4.4084,4.4084,4.4082,4.4058,4.4058,4.4056,4.4072,4.4072,4.4072,4.4058,0,4.4192,4.4177,4.4172,4.4159,4.4151,4.4146,4.4137,4.4129,4.4123,4.4114,4.4107,4.4097,4.4097,4.4093,4.4085,4.4077,4.4069,4.4078,4.4062,4.4062,4.4065,4.4053,4.4054,4.4042,4.4056,4.4056,4.4056,0,4.4183,4.4174,4.4161,4.4149,4.4145,4.4138,4.4127,4.4119,4.4108,4.4104,4.4095,4.4091,4.4079,4.4082,4.4064,4.407,4.4063,4.4058,4.4057,4.4055,4.4058,4.405,4.4038,4.4036,4.4053,4.4053,4.4053,0,4.4182,4.4167,4.4156,4.4151,4.4138,4.4132,4.4126,4.4116,4.4109,4.4098,4.4093,4.4081,4.4075,4.4064,4.4056,4.4059,4.4038,4.4041,4.4033,4.4033,4.403,4.403,4.4015,4.4026,4.4026,4.4026,4.4026,0,4.4175,4.4166,4.4155,4.4149,4.4138,4.4131,4.412,4.4114,4.4104,4.4095,4.4089,4.408,4.407,4.4059,4.4052,4.4037,4.4035,4.403,4.4028,4.403,4.403,4.4025,4.4025,4.4026,4.4026,4.4026,4.4026,0,4.4172,4.4164,4.4152,4.414,4.4136,4.4129,4.4118,4.411,4.4103,4.4091,4.4088,4.4076,4.4063,4.4053,4.4036,4.4031,4.4015,4.4014,4.4019,4.4018,4.4011,4.4011,4.3992,4.3988,4.4002,4.4002,4.4002,0,4.4168,4.4161,4.4148,4.4142,4.4135,4.4126,4.4118,4.411,4.4102,4.4088,4.4082,4.4068,4.4057,4.4035,4.4024,4.401,4.4008,4.4001,4.4005,4.4007,4.4006,4.4006,4.4005,4.4001,4.4001,4.4001,4.4001,0,4.4161,4.4157,4.4148,4.4136,4.4128,4.4118,4.4108,4.4103,4.4092,4.4084,4.407,4.4061,4.4043,4.4029,4.4013,4.4005,4.4,4.3999,4.3997,4.3999,4.4002,4.3999,4.4017,4.4,4.4,4.4,4.4,4.4,4.4157,4.415,4.4139,4.4128,4.412,4.411,4.4102,4.4093,4.4082,4.4067,4.4062,4.4048,4.4034,4.4013,4.4004,4.3991,4.3991,4.3988,4.3987,4.3986,4.3985,4.4004,4.3988,4.3988,4.3988,4.3988,4.3988,0,4.4149,4.4142,4.4132,4.4118,4.4108,4.4105,4.4093,4.4085,4.4073,4.4061,4.405,4.4033,4.4018,4.4005,4.3989,4.3981,4.3979,4.3977,4.3978,4.3975,4.3987,4.399,4.398,4.398,4.398,4.398,4.398,4.398,4.4144,4.4132,4.4127,4.4109,4.4101,4.4087,4.4081,4.4071,4.4061,4.4043,4.4031,4.4023,4.4009,4.3992,4.3978,4.3974,4.3968,4.3967,4.3963,4.3974,4.3975,4.3976,4.3979,4.3966,4.3966,4.3952,4.3952,4.3952]}]]